Time,TemperatureF,DewpointF,PressureIn,WindDirection,WindDirectionDegrees,WindSpeedMPH,WindSpeedGustMPH,Humidity,HourlyPrecipIn,Conditions,Clouds,dailyrainin,SoftwareType,DateUTC
2013-02-11 00:00:00,-0.6,-18.6,30.33,NNW,338,2.0,2.2,41,0.00,,OVC,0.00,VWS V14.01,2013-02-11 05:00:00,
2013-02-11 00:05:00,-0.4,-18.5,30.33,NNW,338,2.9,2.9,41,0.00,,OVC,0.00,VWS V14.01,2013-02-11 05:05:00,
2013-02-11 00:10:00,-0.9,-19.0,30.33,NNW,338,2.9,2.9,41,0.00,,OVC,0.00,VWS V14.01,2013-02-11 05:10:00,
2013-02-11 00:15:00,-0.8,-18.8,30.33,NNW,338,2.2,2.5,41,0.00,,OVC,0.00,VWS V14.01,2013-02-11 05:15:00,
2013-02-11 00:20:00,-1.1,-19.1,30.30,NNW,338,0.0,1.1,41,0.00,,OVC,0.00,VWS V14.01,2013-02-11 05:20:00,
2013-02-11 00:25:00,-0.9,-19.0,30.30,NNW,338,0.0,0.0,41,0.00,,OVC,0.00,VWS V14.01,2013-02-11 05:25:00,
2013-02-11 00:30:00,-1.3,-19.3,30.30,NNW,338,0.0,0.0,41,0.00,,OVC,0.00,VWS V14.01,2013-02-11 05:30:00,
2013-02-11 00:35:00,-1.5,-19.5,30.30,NNW,338,2.0,2.2,41,0.00,,OVC,0.00,VWS V14.01,2013-02-11 05:35:00,
2013-02-11 00:40:00,-1.7,-19.6,30.30,NNW,338,2.5,2.5,41,0.00,,OVC,0.00,VWS V14.01,2013-02-11 05:40:00,
2013-02-11 00:45:00,-2.4,-20.3,30.30,NNW,338,0.0,0.0,41,0.00,,OVC,0.00,VWS V14.01,2013-02-11 05:45:00,
2013-02-11 00:50:00,-2.2,-20.1,30.33,NNW,338,2.5,2.5,41,0.00,,OVC,0.00,VWS V14.01,2013-02-11 05:50:00,
2013-02-11 00:55:00,-2.6,-20.4,30.33,NNW,338,2.5,2.5,41,0.00,,OVC,0.00,VWS V14.01,2013-02-11 05:55:00,
2013-02-11 01:00:00,-2.4,-20.3,30.33,NNW,338,2.5,2.9,41,0.00,,OVC,0.00,VWS V14.01,2013-02-11 06:00:00,
2013-02-11 01:05:00,-2.7,-20.6,30.30,NNW,338,2.0,2.0,41,0.00,,OVC,0.00,VWS V14.01,2013-02-11 06:05:00,
2013-02-11 01:10:00,-2.6,-20.4,30.30,NNW,338,2.7,2.7,41,0.00,,OVC,0.00,VWS V14.01,2013-02-11 06:10:00,
2013-02-11 01:15:00,-3.1,-20.9,30.30,NNW,338,2.7,2.7,41,0.00,,OVC,0.00,VWS V14.01,2013-02-11 06:15:00,
2013-02-11 01:21:00,-3.1,-20.9,30.33,NNW,338,2.0,2.0,41,0.00,,OVC,0.00,VWS V14.01,2013-02-11 06:21:00,
2013-02-11 01:26:00,-2.9,-20.8,30.33,NNW,338,2.0,2.2,41,0.00,,OVC,0.00,VWS V14.01,2013-02-11 06:26:00,
2013-02-11 01:30:00,-2.7,-20.6,30.33,NNW,338,1.1,1.3,41,0.00,,OVC,0.00,VWS V14.01,2013-02-11 06:30:00,
2013-02-11 01:31:00,-2.7,-20.6,30.33,NNW,338,2.5,2.5,41,0.00,,OVC,0.00,VWS V14.01,2013-02-11 06:31:00,
2013-02-11 01:36:00,-2.6,-20.4,30.30,NNW,338,2.0,2.0,41,0.00,,OVC,0.00,VWS V14.01,2013-02-11 06:36:00,
2013-02-11 01:41:00,-2.6,-20.4,30.30,NNW,338,0.0,1.3,41,0.00,,OVC,0.00,VWS V14.01,2013-02-11 06:41:00,
2013-02-11 01:46:00,-2.6,-20.4,30.30,NNW,338,0.0,0.0,41,0.00,,OVC,0.00,VWS V14.01,2013-02-11 06:46:00,
2013-02-11 01:51:00,-3.1,-20.9,30.30,NNW,338,2.0,2.0,41,0.00,,OVC,0.00,VWS V14.01,2013-02-11 06:51:00,
2013-02-11 01:56:00,-3.5,-21.3,30.30,NNW,338,2.5,2.9,41,0.00,,OVC,0.00,VWS V14.01,2013-02-11 06:56:00,
2013-02-11 02:00:00,-3.5,-21.3,30.30,NNW,338,1.1,2.5,41,0.00,,OVC,0.00,VWS V14.01,2013-02-11 07:00:00,
2013-02-11 02:01:00,-3.6,-21.4,30.30,NNW,338,1.3,2.0,41,0.00,,OVC,0.00,VWS V14.01,2013-02-11 07:01:00,
2013-02-11 02:06:00,-4.2,-21.9,30.30,NNW,338,1.3,1.3,41,0.00,,OVC,0.00,VWS V14.01,2013-02-11 07:06:00,
2013-02-11 02:11:00,-3.8,-21.6,30.30,NNW,338,2.9,2.9,41,0.00,,OVC,0.00,VWS V14.01,2013-02-11 07:11:00,
2013-02-11 02:16:00,-4.5,-22.2,30.30,NNW,338,2.0,2.5,41,0.00,,OVC,0.00,VWS V14.01,2013-02-11 07:16:00,
2013-02-11 02:21:00,-4.7,-22.4,30.27,NNW,338,2.0,2.2,41,0.00,,OVC,0.00,VWS V14.01,2013-02-11 07:21:00,
2013-02-11 02:26:00,-4.7,-22.4,30.27,NNW,338,2.0,2.2,41,0.00,,OVC,0.00,VWS V14.01,2013-02-11 07:26:00,
2013-02-11 02:30:00,-4.7,-22.4,30.27,NNW,338,2.0,2.5,41,0.00,,OVC,0.00,VWS V14.01,2013-02-11 07:30:00,
2013-02-11 02:31:00,-4.7,-22.4,30.27,NNW,338,2.5,2.5,41,0.00,,OVC,0.00,VWS V14.01,2013-02-11 07:31:00,
2013-02-11 02:36:00,-4.4,-22.1,30.27,NNW,338,2.9,2.9,41,0.00,,OVC,0.00,VWS V14.01,2013-02-11 07:36:00,
2013-02-11 02:41:00,-4.4,-22.1,30.27,NNW,338,2.0,2.0,41,0.00,,OVC,0.00,VWS V14.01,2013-02-11 07:41:00,
2013-02-11 02:46:00,-5.1,-22.7,30.27,NNW,338,1.3,1.3,41,0.00,,OVC,0.00,VWS V14.01,2013-02-11 07:46:00,
2013-02-11 02:51:00,-5.6,-23.2,30.24,NNW,338,2.5,2.5,41,0.00,,OVC,0.00,VWS V14.01,2013-02-11 07:51:00,
2013-02-11 02:56:00,-6.3,-23.9,30.24,NNW,338,2.5,2.5,41,0.00,,OVC,0.00,VWS V14.01,2013-02-11 07:56:00,
2013-02-11 03:00:00,-6.3,-23.9,30.24,NNW,338,1.1,2.5,41,0.00,,OVC,0.00,VWS V14.01,2013-02-11 08:00:00,
2013-02-11 03:01:00,-6.5,-24.0,30.24,NNW,338,2.0,2.0,41,0.00,,OVC,0.00,VWS V14.01,2013-02-11 08:01:00,
2013-02-11 03:06:00,-6.2,-23.7,30.27,NNW,338,2.5,2.5,41,0.00,,OVC,0.00,VWS V14.01,2013-02-11 08:06:00,
2013-02-11 03:11:00,-6.2,-23.7,30.27,NNW,338,2.2,2.2,41,0.00,,OVC,0.00,VWS V14.01,2013-02-11 08:11:00,
2013-02-11 03:16:00,-5.8,-23.4,30.27,NNW,338,2.2,2.2,41,0.00,,OVC,0.00,VWS V14.01,2013-02-11 08:16:00,
2013-02-11 03:21:00,-6.2,-23.7,30.30,NNW,338,2.2,2.2,41,0.00,,OVC,0.00,VWS V14.01,2013-02-11 08:21:00,
2013-02-11 03:26:00,-6.5,-24.0,30.30,NNW,338,2.0,2.0,41,0.00,,OVC,0.00,VWS V14.01,2013-02-11 08:26:00,
2013-02-11 03:30:00,-6.3,-23.9,30.30,NNW,338,2.2,2.5,41,0.00,,OVC,0.00,VWS V14.01,2013-02-11 08:30:00,
2013-02-11 03:31:00,-6.3,-23.9,30.30,NNW,338,1.1,1.3,41,0.00,,OVC,0.00,VWS V14.01,2013-02-11 08:31:00,
2013-02-11 03:36:00,-5.8,-23.4,30.27,NNW,338,2.2,2.5,41,0.00,,OVC,0.00,VWS V14.01,2013-02-11 08:36:00,
2013-02-11 03:41:00,-5.6,-23.2,30.27,NNW,338,1.6,2.2,41,0.00,,OVC,0.00,VWS V14.01,2013-02-11 08:41:00,
2013-02-11 03:46:00,-5.4,-23.1,30.27,NNW,338,0.0,0.0,41,0.00,,OVC,0.00,VWS V14.01,2013-02-11 08:46:00,
2013-02-11 03:51:00,-5.3,-22.9,30.27,NNW,338,2.7,2.7,41,0.00,,OVC,0.00,VWS V14.01,2013-02-11 08:51:00,
2013-02-11 03:56:00,-5.6,-23.2,30.27,NNW,338,2.5,2.9,41,0.00,,OVC,0.00,VWS V14.01,2013-02-11 08:56:00,
2013-02-11 04:00:00,-5.8,-23.4,30.27,NNW,338,2.0,2.5,41,0.00,,OVC,0.00,VWS V14.01,2013-02-11 09:00:00,
2013-02-11 04:01:00,-6.3,-23.9,30.27,NNW,338,2.2,2.2,41,0.00,,OVC,0.00,VWS V14.01,2013-02-11 09:01:00,
2013-02-11 04:06:00,-6.3,-23.9,30.24,NNW,338,2.7,2.7,41,0.00,,OVC,0.00,VWS V14.01,2013-02-11 09:06:00,
2013-02-11 04:11:00,-6.9,-24.4,30.24,NNW,338,2.2,2.2,41,0.00,,OVC,0.00,VWS V14.01,2013-02-11 09:11:00,
2013-02-11 04:16:00,-7.8,-25.2,30.24,NNW,338,1.6,1.6,41,0.00,,OVC,0.00,VWS V14.01,2013-02-11 09:16:00,
2013-02-11 04:21:00,-7.2,-24.7,30.27,NNW,338,2.7,2.7,41,0.00,,OVC,0.00,VWS V14.01,2013-02-11 09:21:00,
2013-02-11 04:26:00,-8.0,-25.4,30.27,NNW,338,2.2,2.2,41,0.00,,OVC,0.00,VWS V14.01,2013-02-11 09:26:00,
2013-02-11 04:30:00,-7.8,-25.2,30.27,NNW,338,2.2,2.7,41,0.00,,OVC,0.00,VWS V14.01,2013-02-11 09:30:00,
2013-02-11 04:31:00,-7.2,-24.7,30.27,NNW,338,2.2,2.2,41,0.00,,OVC,0.00,VWS V14.01,2013-02-11 09:31:00,
2013-02-11 04:36:00,-7.4,-24.9,30.24,NNW,338,2.2,2.5,41,0.00,,OVC,0.00,VWS V14.01,2013-02-11 09:36:00,
2013-02-11 04:41:00,-6.7,-24.2,30.24,NNW,338,2.2,2.2,41,0.00,,OVC,0.00,VWS V14.01,2013-02-11 09:41:00,
2013-02-11 04:46:00,-6.7,-24.2,30.24,NNW,338,2.5,2.5,41,0.00,,OVC,0.00,VWS V14.01,2013-02-11 09:46:00,
2013-02-11 04:51:00,-6.5,-24.0,30.24,NNW,338,2.2,2.2,41,0.00,,OVC,0.00,VWS V14.01,2013-02-11 09:51:00,
2013-02-11 04:56:00,-6.7,-24.2,30.24,NNW,338,2.5,2.5,41,0.00,,OVC,0.00,VWS V14.01,2013-02-11 09:56:00,
2013-02-11 05:00:00,-6.7,-24.2,30.24,NNW,338,2.0,2.5,41,0.00,,OVC,0.00,VWS V14.01,2013-02-11 10:00:00,
2013-02-11 05:01:00,-6.9,-24.4,30.24,NNW,338,1.6,1.6,41,0.00,,OVC,0.00,VWS V14.01,2013-02-11 10:01:00,
2013-02-11 05:06:00,-6.5,-24.0,30.24,NNW,338,1.6,1.6,41,0.00,,OVC,0.00,VWS V14.01,2013-02-11 10:06:00,
2013-02-11 05:11:00,-6.5,-24.0,30.24,NNW,338,2.5,2.5,41,0.00,,OVC,0.00,VWS V14.01,2013-02-11 10:11:00,
2013-02-11 05:17:00,-6.3,-23.9,30.24,NNW,338,2.2,2.5,41,0.00,,OVC,0.00,VWS V14.01,2013-02-11 10:17:00,
2013-02-11 05:22:00,-6.5,-24.0,30.24,NNW,338,2.2,2.2,41,0.00,,OVC,0.00,VWS V14.01,2013-02-11 10:22:00,
2013-02-11 05:27:00,-6.5,-24.0,30.24,NNW,338,2.5,2.5,41,0.00,,OVC,0.00,VWS V14.01,2013-02-11 10:27:00,
2013-02-11 05:30:00,-6.3,-23.9,30.24,NNW,338,2.5,2.5,41,0.00,,OVC,0.00,VWS V14.01,2013-02-11 10:30:00,
2013-02-11 05:32:00,-6.3,-23.9,30.24,NNW,338,1.6,2.0,41,0.00,,OVC,0.00,VWS V14.01,2013-02-11 10:32:00,
2013-02-11 05:37:00,-5.8,-23.4,30.21,NNW,338,2.0,2.0,41,0.00,,OVC,0.00,VWS V14.01,2013-02-11 10:37:00,
2013-02-11 05:42:00,-5.8,-23.4,30.21,NNW,338,2.0,2.0,41,0.00,,OVC,0.00,VWS V14.01,2013-02-11 10:42:00,
2013-02-11 05:47:00,-5.8,-23.4,30.21,NNW,338,2.0,2.0,41,0.00,,OVC,0.00,VWS V14.01,2013-02-11 10:47:00,
2013-02-11 05:52:00,-5.4,-23.1,30.21,NNW,338,2.0,2.0,41,0.00,,OVC,0.00,VWS V14.01,2013-02-11 10:52:00,
2013-02-11 05:57:00,-5.1,-22.7,30.21,NNW,338,3.1,3.1,41,0.00,,OVC,0.00,VWS V14.01,2013-02-11 10:57:00,
2013-02-11 06:00:00,-4.7,-22.4,30.21,NNW,338,3.1,3.1,41,0.00,,OVC,0.00,VWS V14.01,2013-02-11 11:00:00,
2013-02-11 06:02:00,-4.7,-22.4,30.21,NNW,338,0.0,0.0,41,0.00,,OVC,0.00,VWS V14.01,2013-02-11 11:02:00,
2013-02-11 06:07:00,-4.7,-22.4,30.21,NNW,338,1.1,1.1,41,0.00,,OVC,0.00,VWS V14.01,2013-02-11 11:07:00,
2013-02-11 06:12:00,-4.5,-22.2,30.21,NNW,338,2.0,2.0,41,0.00,,OVC,0.00,VWS V14.01,2013-02-11 11:12:00,
2013-02-11 06:17:00,-4.5,-22.2,30.21,NNW,338,2.0,2.0,41,0.00,,OVC,0.00,VWS V14.01,2013-02-11 11:17:00,
2013-02-11 06:22:00,-4.5,-22.2,30.21,NNW,338,2.5,2.5,41,0.00,,OVC,0.00,VWS V14.01,2013-02-11 11:22:00,
2013-02-11 06:27:00,-4.4,-22.1,30.21,NNW,338,1.6,1.6,41,0.00,,OVC,0.00,VWS V14.01,2013-02-11 11:27:00,
2013-02-11 06:30:00,-4.2,-21.9,30.21,NNW,338,1.6,1.6,41,0.00,,OVC,0.00,VWS V14.01,2013-02-11 11:30:00,
2013-02-11 06:32:00,-4.0,-21.8,30.21,NNW,338,1.6,1.6,41,0.00,,OVC,0.00,VWS V14.01,2013-02-11 11:32:00,
2013-02-11 06:37:00,-3.5,-21.3,30.21,NNW,338,2.5,2.5,41,0.00,,OVC,0.00,VWS V14.01,2013-02-11 11:37:00,
2013-02-11 06:42:00,-3.3,-21.1,30.21,NNW,338,2.5,2.5,41,0.00,,OVC,0.00,VWS V14.01,2013-02-11 11:42:00,
2013-02-11 06:47:00,-3.5,-21.3,30.21,NNW,338,1.6,1.6,41,0.00,,OVC,0.00,VWS V14.01,2013-02-11 11:47:00,
2013-02-11 06:52:00,-3.1,-20.9,30.21,NNW,338,2.0,2.0,41,0.00,,OVC,0.00,VWS V14.01,2013-02-11 11:52:00,
2013-02-11 06:57:00,-2.7,-20.6,30.21,NNW,338,1.6,1.6,41,0.00,,OVC,0.00,VWS V14.01,2013-02-11 11:57:00,
2013-02-11 07:00:00,-2.6,-20.4,30.21,NNW,338,1.6,1.6,41,0.00,,OVC,0.00,VWS V14.01,2013-02-11 12:00:00,
2013-02-11 07:02:00,-2.4,-20.3,30.21,NNW,338,1.6,1.6,41,0.00,,OVC,0.00,VWS V14.01,2013-02-11 12:02:00,
2013-02-11 07:07:00,-2.0,-19.9,30.21,NNW,338,2.0,2.0,41,0.00,,OVC,0.00,VWS V14.01,2013-02-11 12:07:00,
2013-02-11 07:12:00,-1.5,-19.5,30.21,NNW,338,1.3,1.3,41,0.00,,OVC,0.00,VWS V14.01,2013-02-11 12:12:00,
2013-02-11 07:17:00,-1.1,-19.1,30.21,NNW,338,1.3,1.3,41,0.00,,OVC,0.00,VWS V14.01,2013-02-11 12:17:00,
2013-02-11 07:22:00,-0.6,-18.6,30.18,NNW,338,0.9,1.3,41,0.00,,OVC,0.00,VWS V14.01,2013-02-11 12:22:00,
2013-02-11 07:27:00,0.0,-18.1,30.18,NNW,338,0.9,0.9,41,0.00,,OVC,0.00,VWS V14.01,2013-02-11 12:27:00,
2013-02-11 07:30:00,0.0,-18.1,30.18,NNW,338,0.9,0.9,41,0.00,,OVC,0.00,VWS V14.01,2013-02-11 12:30:00,
2013-02-11 07:32:00,0.5,-17.6,30.18,NNW,338,0.9,0.9,41,0.00,,OVC,0.00,VWS V14.01,2013-02-11 12:32:00,
2013-02-11 07:37:00,1.0,-17.1,30.21,NNW,338,0.9,0.9,41,0.00,,OVC,0.00,VWS V14.01,2013-02-11 12:37:00,
2013-02-11 07:42:00,1.6,-16.7,30.21,NNW,338,2.0,2.0,41,0.00,,OVC,0.00,VWS V14.01,2013-02-11 12:42:00,
2013-02-11 07:47:00,2.5,-15.8,30.21,NNW,338,2.0,2.0,41,0.00,,OVC,0.00,VWS V14.01,2013-02-11 12:47:00,
2013-02-11 07:52:00,3.4,-15.0,30.21,NNW,338,2.0,2.0,41,0.00,,OVC,0.00,VWS V14.01,2013-02-11 12:52:00,
2013-02-11 07:57:00,3.7,-14.7,30.21,NNW,338,1.6,2.0,41,0.00,,OVC,0.00,VWS V14.01,2013-02-11 12:57:00,
2013-02-11 08:00:00,4.1,-14.4,30.21,NNW,338,1.6,1.6,41,0.00,,OVC,0.00,VWS V14.01,2013-02-11 13:00:00,
2013-02-11 08:02:00,4.5,-14.0,30.21,NNW,338,1.3,1.3,41,0.00,,OVC,0.00,VWS V14.01,2013-02-11 13:02:00,
2013-02-11 08:07:00,5.5,-13.1,30.21,NNW,338,1.3,1.3,41,0.00,,OVC,0.00,VWS V14.01,2013-02-11 13:07:00,
2013-02-11 08:12:00,5.5,-13.1,30.21,NNW,338,1.3,1.3,41,0.00,,OVC,0.00,VWS V14.01,2013-02-11 13:12:00,
2013-02-11 08:18:00,5.5,-13.1,30.21,NNW,338,1.3,1.3,41,0.00,,OVC,0.00,VWS V14.01,2013-02-11 13:18:00,
2013-02-11 08:23:00,5.5,-13.1,30.18,NNW,338,1.3,1.3,41,0.00,,OVC,0.00,VWS V14.01,2013-02-11 13:23:00,
2013-02-11 08:28:00,5.5,-13.1,30.18,NNW,338,1.3,1.3,41,0.00,,OVC,0.00,VWS V14.01,2013-02-11 13:28:00,
2013-02-11 08:30:00,5.5,-13.1,30.18,NNW,338,1.3,1.3,41,0.00,,OVC,0.00,VWS V14.01,2013-02-11 13:30:00,
2013-02-11 08:33:00,5.5,-13.1,30.18,NNW,338,1.3,1.3,41,0.00,,OVC,0.00,VWS V14.01,2013-02-11 13:33:00,
2013-02-11 08:38:00,5.5,-13.1,30.18,NNW,338,1.3,1.3,41,0.00,,OVC,0.00,VWS V14.01,2013-02-11 13:38:00,
2013-02-11 08:43:00,5.5,-13.1,30.18,NNW,338,1.3,1.3,41,0.00,,OVC,0.00,VWS V14.01,2013-02-11 13:43:00,
2013-02-11 08:48:00,5.5,-13.1,30.18,NNW,338,1.3,1.3,41,0.00,,OVC,0.00,VWS V14.01,2013-02-11 13:48:00,
2013-02-11 08:53:00,5.5,-13.1,30.15,NNW,338,1.3,1.3,41,0.00,,OVC,0.00,VWS V14.01,2013-02-11 13:53:00,
2013-02-11 08:58:00,5.5,-13.1,30.15,NNW,338,1.3,1.3,41,0.00,,OVC,0.00,VWS V14.01,2013-02-11 13:58:00,
2013-02-11 09:00:00,5.5,-13.1,30.15,NNW,338,1.3,1.3,41,0.00,,OVC,0.00,VWS V14.01,2013-02-11 14:00:00,
2013-02-11 09:03:00,5.5,-13.1,30.15,NNW,338,1.3,1.3,41,0.00,,OVC,0.00,VWS V14.01,2013-02-11 14:03:00,
2013-02-11 09:08:00,12.2,-7.0,30.15,NNW,338,1.3,1.3,41,0.00,,OVC,0.00,VWS V14.01,2013-02-11 14:08:00,
2013-02-11 09:13:00,13.5,-5.8,30.15,NNW,338,1.3,1.3,41,0.00,,OVC,0.00,VWS V14.01,2013-02-11 14:13:00,
2013-02-11 09:18:00,13.5,-5.8,30.15,NNW,338,1.3,1.3,41,0.00,,OVC,0.00,VWS V14.01,2013-02-11 14:18:00,
2013-02-11 09:23:00,13.5,-5.8,30.15,NNW,338,1.3,1.3,41,0.00,,OVC,0.00,VWS V14.01,2013-02-11 14:23:00,
2013-02-11 09:28:00,13.5,-5.8,30.15,NNW,338,1.3,1.3,41,0.00,,OVC,0.00,VWS V14.01,2013-02-11 14:28:00,
2013-02-11 09:30:00,13.5,-5.8,30.15,NNW,338,1.3,1.3,41,0.00,,OVC,0.00,VWS V14.01,2013-02-11 14:30:00,
2013-02-11 09:33:00,13.5,-5.8,30.15,NNW,338,1.3,1.3,41,0.00,,OVC,0.00,VWS V14.01,2013-02-11 14:33:00,
2013-02-11 09:38:00,18.3,4.9,30.15,NNW,338,1.3,1.3,55,0.00,,OVC,0.00,VWS V14.01,2013-02-11 14:38:00,
2013-02-11 09:43:00,18.9,5.0,30.15,NNW,338,1.3,1.3,54,0.00,,OVC,0.00,VWS V14.01,2013-02-11 14:43:00,
2013-02-11 09:48:00,19.2,4.9,30.15,NNW,338,2.5,2.5,53,0.00,,OVC,0.00,VWS V14.01,2013-02-11 14:48:00,
2013-02-11 09:53:00,19.2,4.9,30.15,NNW,338,2.5,2.5,53,0.00,,OVC,0.00,VWS V14.01,2013-02-11 14:53:00,
2013-02-11 09:58:00,19.2,4.9,30.15,NNW,338,2.5,2.5,53,0.00,,OVC,0.00,VWS V14.01,2013-02-11 14:58:00,
2013-02-11 10:00:00,19.2,4.9,30.15,NNW,338,2.5,2.5,53,0.00,,OVC,0.00,VWS V14.01,2013-02-11 15:00:00,
2013-02-11 10:03:00,21.9,7.4,30.15,NNW,338,2.5,2.5,53,0.00,,OVC,0.00,VWS V14.01,2013-02-11 15:03:00,
2013-02-11 10:08:00,23.0,8.4,30.12,NNW,338,2.5,2.5,53,0.00,,OVC,0.00,VWS V14.01,2013-02-11 15:08:00,
2013-02-11 10:13:00,24.3,8.8,30.12,NNW,338,2.5,2.5,51,0.00,,OVC,0.00,VWS V14.01,2013-02-11 15:13:00,
2013-02-11 10:18:00,24.8,9.2,30.12,NNW,338,2.5,2.5,51,0.00,,OVC,0.00,VWS V14.01,2013-02-11 15:18:00,
2013-02-11 10:23:00,25.7,9.6,30.09,NNW,338,2.5,2.5,50,0.00,,OVC,0.00,VWS V14.01,2013-02-11 15:23:00,
2013-02-11 10:28:00,26.1,10.0,30.09,NNW,338,2.5,2.5,50,0.00,,OVC,0.00,VWS V14.01,2013-02-11 15:28:00,
2013-02-11 10:30:00,26.1,10.0,30.09,NNW,338,2.5,2.5,50,0.00,,OVC,0.00,VWS V14.01,2013-02-11 15:30:00,
2013-02-11 10:33:00,26.8,10.2,30.09,NNW,338,2.5,2.5,49,0.00,,OVC,0.00,VWS V14.01,2013-02-11 15:33:00,
2013-02-11 10:38:00,27.9,11.2,30.09,NNW,338,0.0,2.5,49,0.00,,OVC,0.00,VWS V14.01,2013-02-11 15:38:00,
2013-02-11 10:43:00,28.6,11.4,30.09,NNW,338,0.0,0.0,48,0.00,,OVC,0.00,VWS V14.01,2013-02-11 15:43:00,
2013-02-11 10:48:00,28.9,11.7,30.09,NNW,338,0.0,0.0,48,0.00,,OVC,0.00,VWS V14.01,2013-02-11 15:48:00,
2013-02-11 10:53:00,29.5,11.8,30.06,NNW,338,0.0,0.0,47,0.00,,OVC,0.00,VWS V14.01,2013-02-11 15:53:00,
2013-02-11 10:58:00,29.5,11.8,30.06,NNW,338,0.0,0.0,47,0.00,,OVC,0.00,VWS V14.01,2013-02-11 15:58:00,
2013-02-11 11:00:00,29.5,11.8,30.06,NNW,338,0.0,0.0,47,0.00,,OVC,0.00,VWS V14.01,2013-02-11 16:00:00,
2013-02-11 11:03:00,29.8,12.1,30.06,SSW,202,2.0,2.0,47,0.00,,OVC,0.00,VWS V14.01,2013-02-11 16:03:00,
2013-02-11 11:08:00,29.8,12.1,30.09,SSW,202,2.2,2.2,47,0.00,,OVC,0.00,VWS V14.01,2013-02-11 16:08:00,
2013-02-11 11:13:00,30.0,12.2,30.09,SSW,202,2.2,2.2,47,0.00,,OVC,0.00,VWS V14.01,2013-02-11 16:13:00,
2013-02-11 11:18:00,30.6,12.7,30.09,SSW,202,2.2,2.2,47,0.00,,OVC,0.00,VWS V14.01,2013-02-11 16:18:00,
2013-02-11 11:23:00,31.1,12.8,30.09,SSW,202,2.2,2.2,46,0.00,,OVC,0.00,VWS V14.01,2013-02-11 16:23:00,
2013-02-11 11:28:00,31.1,12.8,30.09,SSW,202,0.0,0.0,46,0.00,,OVC,0.00,VWS V14.01,2013-02-11 16:28:00,
2013-02-11 11:30:00,31.1,12.8,30.09,SSW,202,0.0,0.0,46,0.00,,OVC,0.00,VWS V14.01,2013-02-11 16:30:00,
2013-02-11 11:33:00,31.5,13.1,30.09,SSW,202,0.0,0.0,46,0.00,,OVC,0.00,VWS V14.01,2013-02-11 16:33:00,
2013-02-11 11:38:00,31.3,13.4,30.06,SSW,202,0.0,0.0,47,0.00,,OVC,0.00,VWS V14.01,2013-02-11 16:38:00,
2013-02-11 11:43:00,31.1,13.2,30.06,SSW,202,0.0,0.0,47,0.00,,OVC,0.00,VWS V14.01,2013-02-11 16:43:00,
2013-02-11 11:48:00,31.6,13.7,30.00,SSW,202,0.0,0.0,47,0.00,,OVC,0.00,VWS V14.01,2013-02-11 16:48:00,
2013-02-11 11:53:00,32.0,14.6,30.00,SSW,202,0.0,0.0,48,0.00,,OVC,0.00,VWS V14.01,2013-02-11 16:53:00,
2013-02-11 11:59:00,31.8,14.4,30.00,SSW,202,0.0,0.0,48,0.00,,OVC,0.00,VWS V14.01,2013-02-11 16:59:00,
2013-02-11 12:00:00,31.8,14.4,30.00,SSW,202,0.0,0.0,48,0.00,,OVC,0.00,VWS V14.01,2013-02-11 17:00:00,
2013-02-11 12:04:00,32.5,15.0,30.03,SSW,202,0.0,0.0,48,0.00,,OVC,0.00,VWS V14.01,2013-02-11 17:04:00,
2013-02-11 12:09:00,32.7,15.2,30.03,SSW,202,0.0,0.0,48,0.00,,OVC,0.00,VWS V14.01,2013-02-11 17:09:00,
2013-02-11 12:14:00,32.7,15.2,30.03,SSW,202,0.0,0.0,48,0.00,,OVC,0.00,VWS V14.01,2013-02-11 17:14:00,
2013-02-11 12:19:00,32.9,15.4,30.00,SSW,202,0.0,0.0,48,0.00,,OVC,0.00,VWS V14.01,2013-02-11 17:19:00,
2013-02-11 12:24:00,32.7,15.7,30.00,SSW,202,0.0,1.1,49,0.00,,OVC,0.00,VWS V14.01,2013-02-11 17:24:00,
2013-02-11 12:29:00,32.7,15.7,30.00,SSW,202,0.0,0.0,49,0.00,,OVC,0.00,VWS V14.01,2013-02-11 17:29:00,
2013-02-11 12:30:00,32.7,15.7,30.00,SSW,202,0.0,0.0,49,0.00,,OVC,0.00,VWS V14.01,2013-02-11 17:30:00,
2013-02-11 12:34:00,32.5,16.0,30.00,SSW,202,0.0,0.0,50,0.00,,OVC,0.00,VWS V14.01,2013-02-11 17:34:00,
2013-02-11 12:39:00,32.2,15.6,30.00,SSW,202,0.9,2.2,50,0.00,,OVC,0.00,VWS V14.01,2013-02-11 17:39:00,
2013-02-11 12:44:00,31.8,15.8,30.00,WSW,248,0.9,1.3,51,0.00,,OVC,0.00,VWS V14.01,2013-02-11 17:44:00,
2013-02-11 12:49:00,31.6,16.0,30.00,SSW,202,2.5,3.1,52,0.00,,OVC,0.00,VWS V14.01,2013-02-11 17:49:00,
2013-02-11 12:54:00,31.6,16.9,30.00,SE,135,1.3,2.0,54,0.00,,OVC,0.00,VWS V14.01,2013-02-11 17:54:00,
2013-02-11 12:59:00,31.6,17.8,30.00,South,180,2.0,2.7,56,0.00,,OVC,0.00,VWS V14.01,2013-02-11 17:59:00,
2013-02-11 13:00:00,31.6,17.3,30.00,SSW,202,1.6,2.7,55,0.00,,OVC,0.00,VWS V14.01,2013-02-11 18:00:00,
2013-02-11 13:04:00,31.8,18.3,29.97,SE,135,0.0,1.3,57,0.00,,OVC,0.00,VWS V14.01,2013-02-11 18:04:00,
2013-02-11 13:09:00,31.8,20.7,29.97,ESE,112,1.6,1.6,63,0.00,,OVC,0.00,VWS V14.01,2013-02-11 18:09:00,
2013-02-11 13:14:00,32.2,20.3,29.97,ESE,112,0.0,0.9,61,0.00,,OVC,0.00,VWS V14.01,2013-02-11 18:14:00,
2013-02-11 13:19:00,32.5,20.6,29.97,ESE,112,0.0,0.0,61,0.00,,OVC,0.00,VWS V14.01,2013-02-11 18:19:00,
2013-02-11 13:24:00,32.5,20.6,29.97,ESE,112,0.0,1.1,61,0.00,,OVC,0.00,VWS V14.01,2013-02-11 18:24:00,
2013-02-11 13:29:00,32.5,20.6,29.97,ESE,112,0.0,0.0,61,0.00,,OVC,0.00,VWS V14.01,2013-02-11 18:29:00,
2013-02-11 13:30:00,32.5,20.6,29.97,ESE,112,0.0,0.0,61,0.00,,OVC,0.00,VWS V14.01,2013-02-11 18:30:00,
2013-02-11 13:34:00,32.5,21.0,29.94,ESE,112,0.0,0.0,62,0.00,,OVC,0.00,VWS V14.01,2013-02-11 18:34:00,
2013-02-11 13:39:00,32.7,21.9,29.94,ESE,112,0.0,0.0,64,0.00,,OVC,0.00,VWS V14.01,2013-02-11 18:39:00,
2013-02-11 13:44:00,33.3,23.1,29.94,ESE,112,0.0,0.0,66,0.00,,OVC,0.00,VWS V14.01,2013-02-11 18:44:00,
2013-02-11 13:49:00,33.3,23.5,29.91,ESE,112,0.0,0.0,67,0.00,,OVC,0.00,VWS V14.01,2013-02-11 18:49:00,
2013-02-11 13:54:00,34.0,24.2,29.91,ESE,112,1.6,2.0,67,0.00,,OVC,0.00,VWS V14.01,2013-02-11 18:54:00,
2013-02-11 13:59:00,33.8,26.4,29.91,ESE,112,1.1,1.1,74,0.00,,OVC,0.00,VWS V14.01,2013-02-11 18:59:00,
2013-02-11 14:00:00,34.0,26.2,29.91,ESE,112,1.1,1.1,73,0.00,,OVC,0.00,VWS V14.01,2013-02-11 19:00:00,
2013-02-11 14:04:00,33.6,26.6,29.91,ESE,112,1.3,2.0,75,0.00,,OVC,0.00,VWS V14.01,2013-02-11 19:04:00,
2013-02-11 14:09:00,33.8,28.0,29.91,ESE,112,2.2,2.2,79,0.00,,OVC,0.00,VWS V14.01,2013-02-11 19:09:00,
2013-02-11 14:14:00,34.0,28.8,29.91,ESE,112,2.0,2.0,81,0.00,,OVC,0.00,VWS V14.01,2013-02-11 19:14:00,
2013-02-11 14:19:00,34.3,29.4,29.91,ESE,112,2.2,2.2,82,0.00,,OVC,0.00,VWS V14.01,2013-02-11 19:19:00,
2013-02-11 14:24:00,34.3,29.4,29.91,ESE,112,2.0,2.2,82,0.00,,OVC,0.00,VWS V14.01,2013-02-11 19:24:00,
2013-02-11 14:29:00,34.0,29.1,29.91,ESE,112,2.7,2.7,82,0.00,,OVC,0.00,VWS V14.01,2013-02-11 19:29:00,
2013-02-11 14:30:00,34.0,29.1,29.91,ESE,112,2.7,2.7,82,0.00,,OVC,0.00,VWS V14.01,2013-02-11 19:30:00,
2013-02-11 14:34:00,34.0,29.1,29.91,ESE,112,1.3,2.0,82,0.00,,OVC,0.00,VWS V14.01,2013-02-11 19:34:00,
2013-02-11 14:39:00,34.0,29.4,29.91,ESE,112,2.5,2.7,83,0.00,,OVC,0.00,VWS V14.01,2013-02-11 19:39:00,
2013-02-11 14:44:00,33.8,29.5,29.91,ESE,112,1.6,1.6,84,0.00,,OVC,0.00,VWS V14.01,2013-02-11 19:44:00,
2013-02-11 14:49:00,33.6,29.9,29.88,ESE,112,1.3,1.3,86,0.00,,OVC,0.00,VWS V14.01,2013-02-11 19:49:00,
2013-02-11 14:54:00,33.4,30.0,29.88,ESE,112,1.3,1.3,87,0.00,,OVC,0.00,VWS V14.01,2013-02-11 19:54:00,
2013-02-11 14:59:00,33.3,30.1,29.88,ESE,112,1.6,1.6,88,0.00,,OVC,0.00,VWS V14.01,2013-02-11 19:59:00,
2013-02-11 15:00:00,33.3,30.1,29.88,ESE,112,1.6,1.6,88,0.00,,OVC,0.00,VWS V14.01,2013-02-11 20:00:00,
2013-02-11 15:04:00,33.3,30.4,29.85,ESE,112,2.7,2.7,89,0.00,,OVC,0.00,VWS V14.01,2013-02-11 20:04:00,
2013-02-11 15:09:00,33.4,30.8,29.85,ESE,112,2.0,2.2,90,0.00,,OVC,0.00,VWS V14.01,2013-02-11 20:09:00,
2013-02-11 15:14:00,33.4,31.4,29.85,ESE,112,2.9,3.4,92,0.00,,OVC,0.00,VWS V14.01,2013-02-11 20:14:00,
2013-02-11 15:19:00,33.4,31.6,29.85,SE,135,2.7,2.7,93,0.00,,OVC,0.00,VWS V14.01,2013-02-11 20:19:00,
2013-02-11 15:24:00,33.4,31.9,29.85,SE,135,2.5,2.7,94,0.00,,OVC,0.00,VWS V14.01,2013-02-11 20:24:00,
2013-02-11 15:30:00,33.3,32.0,29.85,SE,135,2.0,2.9,95,0.00,,OVC,0.00,VWS V14.01,2013-02-11 20:30:00,
2013-02-11 15:35:00,33.6,32.3,29.85,SE,135,2.5,2.7,95,0.00,,OVC,0.00,VWS V14.01,2013-02-11 20:35:00,
2013-02-11 15:40:00,33.6,32.6,29.85,SE,135,2.2,2.9,96,0.00,,OVC,0.00,VWS V14.01,2013-02-11 20:40:00,
2013-02-11 15:45:00,33.6,32.9,29.85,SE,135,2.0,2.5,97,0.00,,OVC,0.00,VWS V14.01,2013-02-11 20:45:00,
2013-02-11 15:50:00,33.8,33.0,29.82,SE,135,2.7,2.7,97,0.00,,OVC,0.00,VWS V14.01,2013-02-11 20:50:00,
2013-02-11 15:55:00,34.0,33.2,29.82,SE,135,1.6,3.6,97,0.00,,OVC,0.00,VWS V14.01,2013-02-11 20:55:00,
2013-02-11 16:00:00,34.0,33.2,29.82,SE,135,2.9,4.9,97,0.00,,OVC,0.00,VWS V14.01,2013-02-11 21:00:00,
2013-02-11 16:05:00,34.0,33.5,29.82,SE,135,3.8,3.8,98,0.00,,OVC,0.00,VWS V14.01,2013-02-11 21:05:00,
2013-02-11 16:10:00,34.0,33.5,29.82,SE,135,3.1,3.8,98,0.00,,OVC,0.00,VWS V14.01,2013-02-11 21:10:00,
2013-02-11 16:15:00,34.2,33.7,29.82,SSE,158,4.0,4.0,98,0.00,,OVC,0.00,VWS V14.01,2013-02-11 21:15:00,
2013-02-11 16:20:00,34.3,33.8,29.79,SSE,158,2.5,3.4,98,0.00,,OVC,0.00,VWS V14.01,2013-02-11 21:20:00,
2013-02-11 16:25:00,34.3,33.8,29.79,SSE,158,2.9,2.9,98,0.00,,OVC,0.00,VWS V14.01,2013-02-11 21:25:00,
2013-02-11 16:30:00,34.5,34.0,29.79,SSE,158,3.6,4.0,98,0.00,,OVC,0.00,VWS V14.01,2013-02-11 21:30:00,
2013-02-11 16:35:00,34.5,34.0,29.76,SSE,158,1.6,3.8,98,0.00,,OVC,0.00,VWS V14.01,2013-02-11 21:35:00,
2013-02-11 16:40:00,34.5,34.0,29.76,SSE,158,4.7,4.7,98,0.00,,OVC,0.00,VWS V14.01,2013-02-11 21:40:00,
2013-02-11 16:45:00,34.5,34.0,29.76,SSE,158,3.1,3.4,98,0.00,,OVC,0.00,VWS V14.01,2013-02-11 21:45:00,
2013-02-11 16:50:00,34.5,34.0,29.76,SSE,158,3.4,4.7,98,0.00,,OVC,0.00,VWS V14.01,2013-02-11 21:50:00,
2013-02-11 16:55:00,34.3,33.8,29.76,SSE,158,1.3,2.2,98,0.00,,OVC,0.00,VWS V14.01,2013-02-11 21:55:00,
2013-02-11 17:00:00,34.3,33.8,29.76,SSE,158,2.0,2.7,98,0.00,,OVC,0.00,VWS V14.01,2013-02-11 22:00:00,
2013-02-11 17:05:00,34.3,33.8,29.74,SSE,158,1.3,1.6,98,0.00,,OVC,0.00,VWS V14.01,2013-02-11 22:05:00,
2013-02-11 17:10:00,34.3,33.8,29.74,ENE,68,1.1,3.6,98,0.00,,OVC,0.00,VWS V14.01,2013-02-11 22:10:00,
2013-02-11 17:15:00,34.3,33.8,29.74,East,90,1.3,2.9,98,0.00,,OVC,0.00,VWS V14.01,2013-02-11 22:15:00,
2013-02-11 17:20:00,34.3,33.8,29.71,ESE,112,0.0,1.6,98,0.00,,OVC,0.00,VWS V14.01,2013-02-11 22:20:00,
2013-02-11 17:25:00,34.3,33.8,29.71,SSE,158,0.0,1.3,98,0.00,,OVC,0.00,VWS V14.01,2013-02-11 22:25:00,
2013-02-11 17:30:00,34.3,33.8,29.71,SSE,158,1.3,3.1,98,0.00,,OVC,0.00,VWS V14.01,2013-02-11 22:30:00,
2013-02-11 17:35:00,34.5,34.0,29.74,South,180,2.7,2.7,98,0.00,,OVC,0.00,VWS V14.01,2013-02-11 22:35:00,
2013-02-11 17:40:00,34.5,34.0,29.74,SSE,158,2.0,2.0,98,0.00,,OVC,0.00,VWS V14.01,2013-02-11 22:40:00,
2013-02-11 17:45:00,34.5,34.0,29.74,SSE,158,0.0,2.5,98,0.00,,OVC,0.00,VWS V14.01,2013-02-11 22:45:00,
2013-02-11 17:50:00,34.7,34.2,29.74,SSE,158,1.3,2.9,98,0.00,,OVC,0.00,VWS V14.01,2013-02-11 22:50:00,
2013-02-11 17:55:00,34.9,34.4,29.74,SSE,158,1.3,2.2,98,0.00,,OVC,0.00,VWS V14.01,2013-02-11 22:55:00,
2013-02-11 18:00:00,34.9,34.4,29.74,SSE,158,2.5,2.5,98,0.00,,OVC,0.00,VWS V14.01,2013-02-11 23:00:00,
2013-02-11 18:05:00,35.1,34.5,29.71,SSE,158,2.2,3.1,98,0.00,,OVC,0.00,VWS V14.01,2013-02-11 23:05:00,
2013-02-11 18:10:00,35.1,34.5,29.71,SSE,158,2.2,2.5,98,0.00,,OVC,0.00,VWS V14.01,2013-02-11 23:10:00,
2013-02-11 18:15:00,35.2,34.7,29.71,SSE,158,2.2,2.5,98,0.00,,OVC,0.00,VWS V14.01,2013-02-11 23:15:00,
2013-02-11 18:20:00,35.2,34.7,29.68,SSE,158,0.0,0.0,98,0.00,,OVC,0.00,VWS V14.01,2013-02-11 23:20:00,
2013-02-11 18:25:00,35.2,34.7,29.68,SSE,158,0.0,1.1,98,0.00,,OVC,0.00,VWS V14.01,2013-02-11 23:25:00,
2013-02-11 18:30:00,35.4,34.9,29.68,SSE,158,0.0,2.2,98,0.00,,OVC,0.00,VWS V14.01,2013-02-11 23:30:00,
2013-02-11 18:35:00,35.4,34.9,29.68,SSE,158,2.0,2.0,98,0.00,,OVC,0.00,VWS V14.01,2013-02-11 23:35:00,
2013-02-11 18:40:00,35.4,34.9,29.68,SSE,158,0.0,0.0,98,0.00,,OVC,0.00,VWS V14.01,2013-02-11 23:40:00,
2013-02-11 18:45:00,35.4,34.9,29.68,SSE,158,0.0,1.1,98,0.00,,OVC,0.00,VWS V14.01,2013-02-11 23:45:00,
2013-02-11 18:50:00,35.4,34.9,29.68,SSE,158,0.0,0.0,98,0.00,,OVC,0.00,VWS V14.01,2013-02-11 23:50:00,
2013-02-11 18:55:00,35.4,34.9,29.68,SSE,158,0.0,0.0,98,0.00,,OVC,0.00,VWS V14.01,2013-02-11 23:55:00,
2013-02-11 19:00:00,35.4,34.9,29.68,SSE,158,0.0,0.0,98,0.00,,OVC,0.00,VWS V14.01,2013-02-12 00:00:00,
2013-02-11 19:05:00,35.4,34.9,29.68,SSE,158,0.0,0.0,98,0.00,,OVC,0.00,VWS V14.01,2013-02-12 00:05:00,
2013-02-11 19:10:00,35.4,34.9,29.68,SSE,158,0.0,0.0,98,0.00,,OVC,0.00,VWS V14.01,2013-02-12 00:10:00,
2013-02-11 19:15:00,35.2,34.7,29.68,SSE,158,0.0,0.0,98,0.00,,OVC,0.00,VWS V14.01,2013-02-12 00:15:00,
2013-02-11 19:20:00,34.9,34.4,29.65,SSE,158,0.0,0.0,98,0.00,,OVC,0.00,VWS V14.01,2013-02-12 00:20:00,
2013-02-11 19:25:00,34.7,34.2,29.65,SSE,158,0.0,0.0,98,0.00,,OVC,0.00,VWS V14.01,2013-02-12 00:25:00,
2013-02-11 19:30:00,34.5,34.0,29.65,SSE,158,0.0,0.0,98,0.00,,OVC,0.00,VWS V14.01,2013-02-12 00:30:00,
2013-02-11 19:35:00,34.2,33.7,29.65,SSE,158,0.0,0.0,98,0.00,,OVC,0.00,VWS V14.01,2013-02-12 00:35:00,
2013-02-11 19:40:00,34.0,33.5,29.65,SSE,158,0.0,0.0,98,0.00,,OVC,0.00,VWS V14.01,2013-02-12 00:40:00,
2013-02-11 19:46:00,34.0,33.5,29.65,SSE,158,0.0,0.0,98,0.00,,OVC,0.00,VWS V14.01,2013-02-12 00:46:00,
2013-02-11 19:51:00,33.8,33.3,29.62,SSE,158,0.0,0.0,98,0.00,,OVC,0.00,VWS V14.01,2013-02-12 00:51:00,
2013-02-11 19:56:00,33.8,33.3,29.62,SSE,158,0.0,0.0,98,0.00,,OVC,0.00,VWS V14.01,2013-02-12 00:56:00,
2013-02-11 20:00:00,33.8,33.3,29.62,SSE,158,0.0,0.0,98,0.00,,OVC,0.00,VWS V14.01,2013-02-12 01:00:00,
2013-02-11 20:01:00,33.6,33.1,29.62,SSE,158,0.0,0.0,98,0.00,,OVC,0.00,VWS V14.01,2013-02-12 01:01:00,
2013-02-11 20:06:00,33.6,33.1,29.59,SSE,158,0.0,0.0,98,0.00,,OVC,0.00,VWS V14.01,2013-02-12 01:06:00,
2013-02-11 20:11:00,33.6,33.1,29.59,SSE,158,0.0,0.0,98,0.00,,OVC,0.00,VWS V14.01,2013-02-12 01:11:00,
2013-02-11 20:16:00,33.6,33.1,29.59,SSE,158,0.0,0.0,98,0.00,,OVC,0.00,VWS V14.01,2013-02-12 01:16:00,
2013-02-11 20:21:00,33.6,33.1,29.62,SSE,158,0.0,0.0,98,0.00,,OVC,0.00,VWS V14.01,2013-02-12 01:21:00,
2013-02-11 20:26:00,33.6,33.1,29.62,SSE,158,0.0,0.0,98,0.00,,OVC,0.00,VWS V14.01,2013-02-12 01:26:00,
2013-02-11 20:30:00,33.4,32.9,29.62,SSE,158,0.0,0.0,98,0.00,,OVC,0.00,VWS V14.01,2013-02-12 01:30:00,
2013-02-11 20:31:00,33.4,32.9,29.62,SSE,158,0.0,0.0,98,0.00,,OVC,0.00,VWS V14.01,2013-02-12 01:31:00,
2013-02-11 20:36:00,33.4,32.9,29.59,SSE,158,0.0,0.0,98,0.00,,OVC,0.00,VWS V14.01,2013-02-12 01:36:00,
2013-02-11 20:41:00,33.4,32.9,29.59,SSE,158,0.0,0.0,98,0.00,,OVC,0.00,VWS V14.01,2013-02-12 01:41:00,
2013-02-11 20:46:00,33.4,32.9,29.59,SSE,158,0.0,0.0,98,0.00,,OVC,0.00,VWS V14.01,2013-02-12 01:46:00,
2013-02-11 20:51:00,33.4,32.9,29.62,SSE,158,0.0,0.0,98,0.00,,OVC,0.00,VWS V14.01,2013-02-12 01:51:00,
2013-02-11 20:56:00,33.4,32.9,29.62,SSE,158,0.0,0.0,98,0.00,,OVC,0.00,VWS V14.01,2013-02-12 01:56:00,
2013-02-11 21:00:00,33.4,32.9,29.62,SSE,158,0.0,0.0,98,0.00,,OVC,0.00,VWS V14.01,2013-02-12 02:00:00,
2013-02-11 21:01:00,33.4,32.9,29.62,SSE,158,0.0,0.0,98,0.00,,OVC,0.00,VWS V14.01,2013-02-12 02:01:00,
2013-02-11 21:06:00,33.6,33.1,29.59,SSE,158,0.0,0.0,98,0.00,,OVC,0.00,VWS V14.01,2013-02-12 02:06:00,
2013-02-11 21:11:00,33.6,33.1,29.59,SSE,158,0.0,0.0,98,0.00,,OVC,0.00,VWS V14.01,2013-02-12 02:11:00,
2013-02-11 21:16:00,33.6,33.1,29.59,SSE,158,0.0,0.0,98,0.00,,OVC,0.00,VWS V14.01,2013-02-12 02:16:00,
2013-02-11 21:21:00,33.3,32.8,29.56,SSE,158,0.0,0.0,98,0.00,,OVC,0.00,VWS V14.01,2013-02-12 02:21:00,
2013-02-11 21:26:00,33.3,32.8,29.56,SSE,158,0.0,0.0,98,0.00,,OVC,0.00,VWS V14.01,2013-02-12 02:26:00,
2013-02-11 21:30:00,33.3,32.8,29.56,SSE,158,0.0,0.0,98,0.00,,OVC,0.00,VWS V14.01,2013-02-12 02:30:00,
2013-02-11 21:31:00,33.3,32.8,29.56,SSE,158,0.0,0.0,98,0.00,,OVC,0.00,VWS V14.01,2013-02-12 02:31:00,
2013-02-11 21:36:00,33.3,32.8,29.56,SSE,158,2.0,2.0,98,0.00,,OVC,0.00,VWS V14.01,2013-02-12 02:36:00,
2013-02-11 21:41:00,33.3,32.8,29.56,SSE,158,0.0,0.0,98,0.00,,OVC,0.00,VWS V14.01,2013-02-12 02:41:00,
2013-02-11 21:46:00,33.3,32.5,29.56,SSE,158,0.0,0.0,97,0.00,,OVC,0.00,VWS V14.01,2013-02-12 02:46:00,
2013-02-11 21:51:00,33.3,32.8,29.56,SSE,158,0.0,0.0,98,0.00,,OVC,0.00,VWS V14.01,2013-02-12 02:51:00,
2013-02-11 21:56:00,33.3,32.8,29.56,SSE,158,0.0,0.0,98,0.00,,OVC,0.00,VWS V14.01,2013-02-12 02:56:00,
2013-02-11 22:00:00,33.4,32.9,29.56,SSE,158,0.0,0.0,98,0.00,,OVC,0.00,VWS V14.01,2013-02-12 03:00:00,
2013-02-11 22:01:00,33.6,33.1,29.56,SSE,158,0.0,0.0,98,0.00,,OVC,0.00,VWS V14.01,2013-02-12 03:01:00,
2013-02-11 22:06:00,34.0,33.5,29.56,SSE,158,1.3,2.0,98,0.00,,OVC,0.00,VWS V14.01,2013-02-12 03:06:00,
2013-02-11 22:11:00,34.0,33.5,29.56,West,270,2.0,2.0,98,0.00,,OVC,0.00,VWS V14.01,2013-02-12 03:11:00,
2013-02-11 22:16:00,33.8,33.3,29.56,WNW,292,0.0,0.0,98,0.00,,OVC,0.00,VWS V14.01,2013-02-12 03:16:00,
2013-02-11 22:21:00,33.8,33.3,29.56,WNW,292,0.0,0.0,98,0.00,,OVC,0.00,VWS V14.01,2013-02-12 03:21:00,
2013-02-11 22:26:00,33.8,33.3,29.56,WNW,292,1.6,3.4,98,0.00,,OVC,0.00,VWS V14.01,2013-02-12 03:26:00,
2013-02-11 22:30:00,34.0,33.5,29.56,WNW,292,0.0,1.1,98,0.00,,OVC,0.00,VWS V14.01,2013-02-12 03:30:00,
2013-02-11 22:31:00,34.0,33.5,29.56,NW,315,0.0,0.0,98,0.00,,OVC,0.00,VWS V14.01,2013-02-12 03:31:00,
2013-02-11 22:36:00,34.0,33.5,29.56,NNW,338,0.0,0.0,98,0.00,,OVC,0.00,VWS V14.01,2013-02-12 03:36:00,
2013-02-11 22:41:00,33.8,33.3,29.56,North,0,0.0,0.0,98,0.00,,OVC,0.00,VWS V14.01,2013-02-12 03:41:00,
2013-02-11 22:46:00,33.8,33.3,29.56,North,0,0.0,0.0,98,0.00,,OVC,0.00,VWS V14.01,2013-02-12 03:46:00,
2013-02-11 22:51:00,33.6,33.1,29.56,North,0,0.0,0.0,98,0.00,,OVC,0.00,VWS V14.01,2013-02-12 03:51:00,
2013-02-11 22:56:00,33.6,33.1,29.56,North,0,0.0,0.0,98,0.00,,OVC,0.00,VWS V14.01,2013-02-12 03:56:00,
2013-02-11 23:00:00,33.6,33.1,29.56,North,0,0.0,0.0,98,0.00,,OVC,0.00,VWS V14.01,2013-02-12 04:00:00,
2013-02-11 23:01:00,33.6,33.1,29.56,NNW,338,2.5,2.5,98,0.00,,OVC,0.00,VWS V14.01,2013-02-12 04:01:00,
2013-02-11 23:06:00,33.4,32.9,29.56,NNW,338,0.0,0.0,98,0.00,,OVC,0.00,VWS V14.01,2013-02-12 04:06:00,
2013-02-11 23:11:00,33.3,32.8,29.56,NW,315,0.0,0.0,98,0.00,,OVC,0.00,VWS V14.01,2013-02-12 04:11:00,
2013-02-11 23:16:00,33.6,33.1,29.56,NNW,338,1.6,2.0,98,0.00,,OVC,0.00,VWS V14.01,2013-02-12 04:16:00,
2013-02-11 23:21:00,33.8,33.3,29.53,NNW,338,2.7,2.7,98,0.00,,OVC,0.00,VWS V14.01,2013-02-12 04:21:00,
2013-02-11 23:26:00,34.0,33.5,29.53,NNW,338,2.5,2.9,98,0.00,,OVC,0.00,VWS V14.01,2013-02-12 04:26:00,
2013-02-11 23:30:00,34.3,33.8,29.53,NNW,338,2.7,2.9,98,0.00,,OVC,0.00,VWS V14.01,2013-02-12 04:30:00,
2013-02-11 23:31:00,34.3,33.8,29.53,NNW,338,2.7,3.6,98,0.00,,OVC,0.00,VWS V14.01,2013-02-12 04:31:00,
2013-02-11 23:36:00,34.5,34.0,29.56,NNW,338,2.9,3.6,98,0.00,,OVC,0.00,VWS V14.01,2013-02-12 04:36:00,
2013-02-11 23:41:00,34.3,33.8,29.56,NNW,338,2.2,2.2,98,0.00,,OVC,0.00,VWS V14.01,2013-02-12 04:41:00,
2013-02-11 23:46:00,34.5,34.0,29.56,NNW,338,2.5,2.5,98,0.00,,OVC,0.00,VWS V14.01,2013-02-12 04:46:00,
2013-02-11 23:51:00,34.7,34.2,29.56,NNW,338,0.0,2.5,98,0.00,,OVC,0.00,VWS V14.01,2013-02-12 04:51:00,
2013-02-11 23:56:00,34.7,34.2,29.56,NNW,338,2.5,2.5,98,0.00,,OVC,0.00,VWS V14.01,2013-02-12 04:56:00,